Weather in Petropavlivka

Ukraine / Dnipropetrovsk Region     48°27′14″N   36°26′25″E
temp.,
°C
wind,
m/s
gust,
m/s
humid.,
%
clouds,
%
prec.,
mm/h
press.,
hPa
HPBL,
m
13 may, thu
thu1300:00+7sse38955 0.4 1014163
03:00+6sse3494100 0.4 101354
06:00+7se239327 0.0 101481
09:00+13sse347592 0.0 1014514
12:00+18s465637 0.0 10141441
15:00+20s3549100 0.0 10131595
18:00+20sse2261100 0.0 101257
21:00+15se34815 0.0 101351
14 may, fri
fri1400:00+14ese358277 0.0 101278
03:00+13ese369296 0.0 101196
06:00+13e310948 1.0 1011256
09:00+19sse4675100 1.0 1010401
12:00+23sse5660100 0.0 1010897
15:00+26ssw4647100 0.0 10091501
18:00+24sw355483 0.0 1009222
21:00+18wsw226898 0.0 101013
15 may, sat
sat1500:00+15wsw33760 0.0 101142
03:00+14wsw3486100 0.0 101276
06:00+13wsw238584 0.0 101358
09:00+19w23624 0.0 1013458
12:00+23ssw34485 0.0 10141564
15:00+24ssw354485 0.0 10132204
18:00+23wsw35520 0.0 1013414
21:00+18nw12610 0.0 101311
16 may, sun
sun1600:00+16nne22649 0.0 101311
03:00+16ne3367100 0.0 101343
06:00+15ne377728 0.0 1013132
09:00+22ene586193 0.0 1012564
12:00+25ene6752100 0.0 10111300
15:00+27ene6752100 0.0 10091716
18:00+25ene586076 0.0 1007441
21:00+19e3570100 0.0 100764
17 may, mon
mon1700:00+17ene41074100 0.0 1006166
03:00+17e5127218 0.0 1005244
06:00+16e4127390 0.0 1005271
09:00+21ese7105183 0.0 1004600
12:00+25se68499 0.0 10041045
15:00+26se785349 0.3 10041505
18:00+23sse797670 0.1 1005930
21:00+18sse41084100 0.8 1007272